Tracking 30105 objects as of 24-Jan-2025
HD Live streaming from Space Station
objects crossing your sky now

CSC-2

Track CSC-2 now!
10-day predictions
CSC-2 is classified as:


NORAD ID: 58021
Int'l Code: 2023-155F
Perigee: 540.2 km
Apogee: 548.5 km
Inclination: 97.6 °
Period: 95.4 minutes
Semi major axis: 6915 km
RCS: Unknown
Launch date: October 9, 2023
Source: Netherlands (NETH)
Launch site: FRENCH GUIANA (FRGUI)

Uplink (MHz):
Downlink (MHz): 401.250
Beacon (MHz):
Mode: 1200bps BPSK
Call sign: CSC2
Status: Active

Your satellite tracking list
Your tracking list is empty




NASA's NSSDC Master Catalog

Two Line Element Set (TLE):
1 58021U 23155F   25023.76325471  .00014277  00000-0  88928-3 0  9998
2 58021  97.6003  96.8917 0005961 189.7680 170.3434 15.09666439 71002
Source of the keplerian elements: AFSPC